User: anonymous   Login
Location: Clanezzo
(45.7500°N, 9.6000°E)
Time: 09:52:43
(UTC+00:00)
Language:

deb Kosmos-1275 - Orbit

View from above orbital plane
View from above orbital plane
View from above satellite
View from above satellite

Ground track
Ground track

The orbit data is extracted from the following two-line orbital elements,

1 12733U 81053CA  22329.81452192  .00002158  00000-0  96642-3 0  9999
2 12733  82.8668 253.4993 0021085 266.9195  92.9574 14.22076399110725
Epoch (UTC): 25 November 2022 19:32:54
Eccentricity: 0.0021085
inclination: 82.8668°
perigee height: 803 km
apogee height: 833 km
right ascension of ascending node: 253.4993°
argument of perigee: 266.9195°
revolutions per day: 14.22076399
mean anomaly at epoch: 92.9574°
orbit number at epoch: 11072

The dashed part of the orbit path shows where the satellite is in the earth's shadow,  

DLR